Satellite-Ground Cal/Val Site Overpasses Predictions

Prediction of Satellite NPP Overpassing Cal/Val Site: Antarctic Dome C

Ground Cal/Val Site Location: Latitude: -75.10, Longitude: 123.35; Satellite-Ground Site NADIR distance within 100 km.

Table of predicted overpasses for the next 14.0 days since TLE Epoch: 11/9/2024
Interval Starting Time Ending Time Minimum Distance Time Minimum Distance (km)
1 11/10/2024 15:07:05 11/10/2024 15:07:13 11/10/2024 15:07:09 94.53
2 11/11/2024 14:48:03 11/11/2024 14:48:32 11/11/2024 14:48:18 16.64
3 11/13/2024 07:30:52 11/13/2024 07:31:22 11/13/2024 07:31:07 3.22
4 11/16/2024 14:54:16 11/16/2024 14:54:45 11/16/2024 14:54:30 19.31
5 11/17/2024 14:35:34 11/17/2024 14:35:47 11/17/2024 14:35:41 87.73
6 11/18/2024 07:37:04 11/18/2024 07:37:32 11/18/2024 07:37:18 32.28
7 11/19/2024 07:18:18 11/19/2024 07:18:36 11/19/2024 07:18:27 78.07
8 11/21/2024 15:00:29 11/21/2024 15:00:53 11/21/2024 15:00:41 55.54
